カタログに戻る

SL-14 R/B

運用中PO
NORAD 23793·ROCKET BODY·🇷🇺 Russia

打ち上げ Feb 19, 1996 から Plesetsk Cosmodrome

Loading…

次のパス (今後24時間)

TLE

最新Source: Space-Track

元期: Sep 14, 2026, 07:05 UTC

1 23793U 96009G   26257.29523618  .00000029  00000-0  11515-3 0  9993
2 23793  82.5760 352.4372 0045958 129.7763 255.4790 12.55092058400537

AllMySatでSL-14 R/Bをリアルタイム追跡

Download on the App Store